Classement final provisoire
Clt   Equipage Voiture Gr/Cl Temps Ecart 1er
1 3   DUCROCQ Philippe Dallara 393 DE 3 1:18,314
2 1   MAYEUR Vincent Tatuus Fr 2000 DE 7 1:19,131 +00:00,817
3 2   LAPOTRE Alban Dallara F393 DE 3 1:20,905 +00:02,591
4 8   FRANCE Mickael Gloria B5 DE 1 1:21,719 +00:03,405
5 4   CABOCHE Hervť Martini Mk 76 DE 3 1:22,995 +00:04,681
6 5   LASSALLE Philippe Martini MK 33 DE 2 1:24,280 +00:05,966
7 15   LECHERTIER Vincent Serem V847 CNF 2 1:24,998 +00:06,684
8 7   BOURGOIS Aurelien Renault Fc DE 1 1:27,107 +00:08,793
9 24   CORDONNIER Antoine Simca 1000 FC 2 1:27,961 +00:09,647
10 16   ORTEGA Christian BRC Evo5 CM 1 1:28,323 +00:10,009
11 28   VERMERSCH Arnaud Simca 1000 FC 1 1:29,391 +00:11,077
12 6   FUSILLIER Philippe Martini Mk 15 DE 2 1:29,424 +00:11,110
13 18   MOUQUET Benoit Radical SR 4 CNF 1 1:30,144 +00:11,830
14 81   GILBERT Jean Michel Renault Clio Williams FA 3 1:32,267 +00:13,953
15 40   CARON Thomas Renault 5 Gt Turbo F2 3 1:32,545 +00:14,231
16 32   JACOBUS Antoine Peugeot 206 Rc F2 3 1:32,700 +00:14,386
17 58   GUEZENNEC Cedric Honda Civic Vti F2 2 1:32,957 +00:14,643
18 88   VERLINDEN Clement Renault R5 GT Turbo FN 4 1:33,220 +00:14,906
19 100   HRONIK Olivier CitroŽn Saxo Vts FN 2 1:33,245 +00:14,931
20 57   FAILLIE Fabrice CitroŽn Saxo Vts F2 2 1:33,755 +00:15,441
21 274   DEWULF Simon Peugeot 205 RALLYE F2 1 1:34,095 +00:15,781
22 25   MASSON Daniel Simca 1000 Proto FS 2 1:34,346 +00:16,032
23 17   LECAILLE Eric Marcadier Canam CNF 1 1:34,402 +00:16,088
24 222   LECHERTIER Jean-Marc Lotus Elise 111 R GT 1 1:34,549 +00:16,235
25 225   MAZINGANT Francois Simca 1000 Proto FS 2 1:34,667 +00:16,353
26 89   DELAIR Eddy Renault 5 Gt FN 4 1:35,320 +00:17,006
27 107   THOLLON Cedrik Peugeot 106 rallye FN 1 1:35,463 +00:17,149
28 54   OUDIN Patrice Peugeot 205 Gti F2 2 1:36,113 +00:17,799
29 34   WALLON Guy Renault Clio Williams F2 3 1:36,210 +00:17,896
30 22   LUSARDI Leonard Lotus Elise 111 R GT 1 1:36,333 +00:18,019
31 61   FRANCOIS Christophe Peugeot 106 Rallye F2 2 1:36,408 +00:18,094
32 71   SENECAT Maxime Peugeot 205 Rallye F2 1 1:37,101 +00:18,787
33 37   CORNU Maxime Renault 5 GT F2 3 1:37,105 +00:18,791
34 38   DUSSART Stephane Renault 5 Gt Turbo F2 3 1:37,403 +00:19,089
35 42   RAMBUR Arnaud Peugeot 205 Gti 1.9 F2 3 1:37,421 +00:19,107
36 74   PHILIPPOT Pierre Peugeot 205 RALLYE F2 1 1:37,464 +00:19,150
37 55   LEVARAY Michael CitroŽn Saxo Vts F2 2 1:37,573 +00:19,259
38 31   WALLON Romain Renault Clio Rs 3 F2 3 1:37,847 +00:19,533
39 51   DESFACHELLES Jeremy Peugeot 205 Gti F2 2 1:38,167 +00:19,853
40 226   AULONG Dominique Renault R5 Alpine FC 2 1:38,357 +00:20,043
41 298   LARGEMAIN Nicolas CitroŽn Saxo Vts N 2 1:38,916 +00:20,602
42 79   COTTIN Johnny BMW 325i A 4 1:39,006 +00:20,692
43 301   DELARRE Pierre CitroŽn Saxo Vts N 2 1:39,072 +00:20,758
44 94   SAGNIER Renaud Renault Clio Rs N 3 1:39,335 +00:21,021
45 92   MAZIRE Alban Peugeot 206 Rc N 3 1:39,640 +00:21,326
46 106   ANDRIEUX Vincent CitroŽn Ax FN 1 1:39,664 +00:21,350
47 105   VALLET Fabrice Peugeot 106 XSI FN 1 1:39,729 +00:21,415
48 93   ROBERT Vincent Ford Fiesta St N 3 1:39,938 +00:21,624
49 82   DUPARCQ Christophe CitroŽn Ax Sport FA 1 1:40,224 +00:21,910
50 237   CORNU Thomas Renault Super 5 Gt Turbo F2 3 1:40,384 +00:22,070
51 127   GALANT Francois Xavier CitroŽn AX Sport L 1 1:40,418 +00:22,104
52 78   LEMAIRE Cyrille Peugeot 207 Rc A 4 1:40,667 +00:22,353
53 80   LIEFOOGHE Sylvain Renault Clio 3 Cup A 3 1:40,677 +00:22,363
54 95   DUBOIS Eric Peugeot 205 Gti FN 3 1:40,728 +00:22,414
55 36   LEDOUX Philippe Peugeot 206 S 16 F2 3 1:40,905 +00:22,591
 
Classement final provisoire
Clt   Equipage Voiture Gr/Cl Temps Ecart 1er
56 59   MAISON Thierry CitroŽn Saxo VTS F2 2 1:40,934 +00:22,620
57 232   JACOBUS Maxime Peugeot 206 Rc F2 3 1:41,132 +00:22,818
58 68   HOCHEDE Sťbastien CitroŽn Ax Maxi F2 1 1:41,568 +00:23,254
59 259   MAISON Thierry Nicolas CitroŽn Saxo Vts F2 2 1:41,576 +00:23,262
60 255   LETELLIER Anthony CitroŽn Saxo Vts F2 2 1:41,618 +00:23,304
61 112   PAQUES Thierry Renault Clio Rs L 2 1:41,655 +00:23,341
62 33   DELATTRE Francois Renault Clio 3 Rs L 2 1:41,725 +00:23,411
63 99   POREZ Alexandre Peugeot 106 Rallye N 2 1:41,800 +00:23,486
64 116   DESCARPENTRIES Luc Renault Clio Rs L 2 1:41,849 +00:23,535
65 122   MARIN Didier CitroŽn Saxo Vts L 2 1:41,899 +00:23,585
66 67   BIGUET Nicolas Peugeot 106 Rallye F2 1 1:41,944 +00:23,630
67 236   CLAY Olivier Peugeot 206 F2 3 1:42,126 +00:23,812
68 44   DANIEL Franck Peugeot 205 Gti F2 3 1:42,522 +00:24,208
69 115   ARNOUX Adrien Renault Megane Coupe L 2 1:42,526 +00:24,212
70 128   HANO Harry CitroŽn DS 3 L 2 1:42,548 +00:24,234
71 83   ISAAC Romain Peugeot 205 Rallye FA 1 1:42,822 +00:24,508
72 267   LEROUX Stephane Peugeot 106 Rallye F2 1 1:42,918 +00:24,604
73 39   SERRET Michel Renault 5 Gt Turbo F2 3 1:42,931 +00:24,617
74 50   COLIN Tony Peugeot 205 F2 2 1:43,104 +00:24,790
75 56   TORRES Cťdric CitroŽn C2 S16 F2 2 1:43,115 +00:24,801
76 113   NICOLAS Vincent Renault Clio Rs 1 L 2 1:43,199 +00:24,885
77 327   FINDINIER Nicolas CitroŽn Ax L 1 1:43,343 +00:25,029
78 87   LEMAIRE Aurelien Subaru Impreza WRX N 4 1:43,545 +00:25,231
79 41   CADART Christophe Peugeot 309 F2 3 1:43,547 +00:25,233
80 60   BLART Bertrand CitroŽn Saxo F2 2 1:43,657 +00:25,343
81 123   LEVILLAIN Andre Renault 5 GT L 2 1:43,938 +00:25,624
82 102   DANDRIEUX Michael CitroŽn Saxo Vts FN 2 1:43,958 +00:25,644
83 98   VACANDARE Ophťlie CitroŽn Saxo Vts N 2 1:43,971 +00:25,657
84 84   NICOLAS Maxime CitroŽn AX Sport FA 1 1:44,044 +00:25,730
85 43   LADEUILLE Jean Pierre Peugeot 205 Gti F2 3 1:44,607 +00:26,293
86 63   LAGACHE Rudy Peugeot 205 Gti F2 2 1:44,860 +00:26,546
87 256   LORGNET Fabrice CitroŽn C2 S16 F2 2 1:44,958 +00:26,644
88 326   RAMEZ Pierre Antoine Peugeot 205 Rallye L 1 1:45,476 +00:27,162
89 72   CARDON Michel Talbot Samba F2 1 1:45,718 +00:27,404
90 114   DECAIX Nicolas Renault Megane Coupe L 2 1:45,839 +00:27,525
91 73   DAME Kťvin Peugeot 106 RALLYE F2 1 1:45,889 +00:27,575
92 273   DAME Yaneck Peugeot 106 Rallye F2 1 1:45,923 +00:27,609
93 26   AULONG Joelle Renault R5 Alpine FC 2 1:45,924 +00:27,610
94 306   ANDRIEUX Helene CitroŽn AX FN 1 1:46,249 +00:27,935
95 289   ROUZE Maxime Renault R5 Gt Turbo FN 4 1:46,305 +00:27,991
96 126   RAMEZ Jean-Louis Peugeot 205 Rallye L 1 1:46,434 +00:28,120
97 118   NORMAND Jerome CitroŽn Saxo Vtr L 2 1:46,472 +00:28,158
98 121   RAVAUX Marc Renault Clio 4 Rs L 2 1:46,488 +00:28,174
99 62   MARECHAL Laurent Peugeot 205gti F2 2 1:46,506 +00:28,192
100 280   PIENNE Eric Renault Clio 3 Cup A 3 1:46,698 +00:28,384
101 260   DUHAMEL Rťmy CitroŽn Saxo F2 2 1:46,953 +00:28,639
102 69   SERREAU Cyril Peugeot 205 Rallye F2 1 1:46,999 +00:28,685
103 250   DURAND Yannick Peugeot 205 F2 2 1:47,211 +00:28,897
104 52   BODART Morgan CitroŽn Saxo F2 2 1:47,541 +00:29,227
105 49   GUEDJOU Aurelien Peugeot 205 F2 2 1:47,789 +00:29,475
106 322   MARIN Marvin CitroŽn Saxo Vts L 2 1:48,163 +00:29,849
107 292   MAZIRE Emmanuel Peugeot 206 Rc N 3 1:48,556 +00:30,242
108 302   CELLIER Jean Michel CitroŽn Saxo Vts FN 2 1:48,597 +00:30,283
109 293   MARCQ Katia Ford Fiesta St N 3 1:48,909 +00:30,595
110 125   PELTIEZ Jeremy Peugeot 106 XSI L 1 1:48,995 +00:30,681
 
Classement final provisoire
Clt   Equipage Voiture Gr/Cl Temps Ecart 1er
111 268   LEROY Pierre CitroŽn Ax Maxi F2 1 1:49,447 +00:31,133
112 328   DELANNOY Lerome CitroŽn DS3 L 2 1:49,616 +00:31,302
113 244   MAUREL Jean Christophe Peugeot 205 Gti F2 3 1:49,825 +00:31,511
114 101   CREPIN Aurelie CitroŽn Saxo Vts N 2 1:50,717 +00:32,403
115 70   GRENIER Patrick Peugeot 205 Rallye F2 1 1:52,638 +00:34,324
116 253   LEFRANCQ Julien Ford Escort 16V F2 2 1:52,840 +00:34,526
117 117   BOURGOIS Jean Luc Volkswagen Corrado L 2 1:53,615 +00:35,301
118 77   DI CARLO Marc Renault 5 GT F2 3 1:53,912 +00:35,598
119 53   TAFFIN Jean-Philippe Ford Escort 16V F2 2 1:54,954 +00:36,640
120 30   HENNUYER Jonathan Peugeot 309 Gti F2 3 1:55,766 +00:37,452
121 45   BOUTOILLE Claude BMW Compact F2 3 1:56,533 +00:38,219
122 227   MARISSAEL Patrick Ford Fiesta FS 1 1:59,150 +00:40,836
123 120   BUCAMP Kevin Ford Focus L 2 2:00,888 +00:42,574
124 27   LEROY Freddy Ford Fiesta FS 1 2:03,752 +00:45,438